COSMOS 2251 DEB, 34913

Orbit data source: Space-Track

COSMOS 2251 DEB, 34913 is space debris in LEO originally from a launch on Wed, 16 Jun 1993 UTC launched from the Plesetsk Missile And Space Complex (PKMTR). The debris from Iridium 33, an American commercial communications satellite, has been tracked extensively since its accidental collision with the defunct Russian satellite Cosmos 2251 in 2009. This event, occurring at high speed in low Earth orbit (LEO), generated thousands of pieces of space debris, significantly increasing the risk of further collisions. The Iridium 33 debris cloud has impacted space traffic management and orbital debris mitigation strategies, making it a subject of ongoing study in space situational awareness.

Loading next visibility...
Identifier
34913, 1993-036ADJ
Orbit
LEO
Country
Flag of CISCIS
Related business
Manufacturer
Unknown
Mission
Spacecraft
Bus & Motor
Unknown
Mass
Unknown
Launch date (UTC)
1993-06-16 (33 years ago)
Launch vehicle
Unknown
Launch site
Plesetsk Missile And Space Complex (PKMTR)
Object type
Payload
Rocket body
Debris
Shape & HBR
Unknown shape, 0.1 m
Radar Cross Section
Small (<0.1 m²)

Expand to show TLE details & history
Last TLE update: 4 days ago

TLE from 4 days ago
0 COSMOS 2251 DEB
1 34913U 93036ADJ 26118.15710973  .00000087  00000-0  39896-4 0  9996
2 34913  74.0302  32.4904 0020069 113.8559 316.1416 14.34678759671447
Epoch: 2026-04-28T03:46Z
TLE epoch observation values (Epoch: 2026-04-28T03:46:14.280Z)
Latitude
64.58724°
Longitude
156.60192°
Altitude
776.573 km
Speed
7.477 km/s
True Right ascension
04h 37m 11s
True Declination
64° 27' 14"
Sunlit
Object was in daylight at epoch
Visualization orbit readout
Latitude
Unknown
Longitude
Unknown
Altitude
Unknown
Speed
Unknown
Apparent Right ascension
Unknown
Apparent Declination
Unknown
Sunlit
N/A
Visualization observer readout
Local Sidereal Time
06:24:58
Azimuth
Unknown
Elevation
Unknown
Doppler factor
Unknown
Orbital elements
Apogee altitude
788.113 km
Perigee altitude
759.407 km
Semi-major axis
7,151.897 km
Eccentricity
0.00201
Inclination
74.0302°
RAAN
32.4904°
Arg. of periapsis
113.8559°
True anomaly
315.98197°
Mean anomaly
316.1416°
Eccentric anomaly
316.06181°
Mean motion
3.58849 °/min
Orbital period
100.32 mins
BSTAR
0.000039896
Loading maneuver chart data...
Computing Atmospheric mass density...
Loading historical data...
Loading historical data...
Loading historical data...
Loading historical data...
Loading historical data...
Loading historical data...
Loading historical data...

Documentation

Showing up to 5 results
|